Hourly Data Report for October 05, 2017

All times are specified in Local Standard Time (LST). Add 1 hour to adjust for Daylight Saving Time where and when it is observed.

THOMPSON A
MANITOBA

55°48'17.000" N
97°51'45.000" W
224.00 m
5062921
71079
YTH

Download Data

Hourly Data (October 2017)
Hourly Data Report for October 5, 2017
Temp Definition
°C
Dew Point Temp Definition
°C
Rel Hum Definition
%
Wind Dir Definition
10's deg

Wind Spd Definition
km/h
Visibility Definition
km
Stn Press Definition
kPa
Hmdx Definition


Wind Chill Definition


Weather Definition


TIME
00:00 Legend Double Dagger -3.4 -5.2 87 29 9 24.1 99.02   -7 Mainly Clear
01:00 Legend Double Dagger -3.9 -5.5 89 29 9 24.1 99.00   -8 LegendNANA
02:00 Legend Double Dagger -4.9 -5.9 93 24 10 24.1 98.97   -9 LegendNANA
03:00 Legend Double Dagger -4.3 -5.7 91 26 9 24.1 98.94   -8 Clear
04:00 Legend Double Dagger -2.8 -4.2 90 27 12 24.1 98.96   -7 LegendNANA
05:00 Legend Double Dagger -2.3 -3.8 90 26 15 24.1 98.92   -7 LegendNANA
06:00 Legend Double Dagger -2.3 -4.0 88 26 14 24.1 98.89   -7 Clear
07:00 Legend Double Dagger -2.9 -4.4 89 26 10 24.1 98.85   -7 LegendNANA
08:00 Legend Double Dagger -0.6 -2.6 87 26 12 24.1 98.83   -5 LegendNANA
09:00 Legend Double Dagger 1.9 -1.6 78 27 18 24.1 98.79     Clear
10:00 Legend Double Dagger 3.9 -1.5 68 28 18 24.1 98.74     LegendNANA
11:00 Legend Double Dagger 5.6 -2.7 55 27 19 24.1 98.71     LegendNANA
12:00 Legend Double Dagger 6.8 -4.3 45 27 22 24.1 98.65     Clear
13:00 Legend Double Dagger 8.1 -5.0 39 25 26 24.1 98.59     LegendNANA
14:00 Legend Double Dagger 9.1 -5.6 35 26 27 24.1 98.53     LegendNANA
15:00 Legend Double Dagger 9.6 -5.1 35 27 26 24.1 98.48     Clear
16:00 Legend Double Dagger 9.9 -3.5 39 26 19 24.1 98.43     LegendNANA
17:00 Legend Double Dagger 9.3 -2.4 44 27 18 24.1 98.35     LegendNANA
18:00 Legend Double Dagger 5.5 -2.1 58 24 8 24.1 98.29     Mainly Clear
19:00 Legend Double Dagger 1.7 -2.3 75 36 1 24.1 98.23     LegendNANA
20:00 Legend Double Dagger 2.6 -1.3 76 23 10 24.1 98.17     LegendNANA
21:00 Legend Double Dagger 2.3 -0.2 84 24 11 24.1 98.12     Mainly Clear
22:00 Legend Double Dagger 1.8 -0.8 83 36 1 24.1 98.05     LegendNANA
23:00 Legend Double Dagger 1.2 0.4 94 36 1 24.1 97.97     LegendNANA

Notes on Data Quality.

Legend

  • E = Estimated
  • M = Missing
  • NA = Not Available
  • ‡ = Partner data that is not subject to review by the National Climate Archives
Date modified: